Location: Conjunto Santa Maria
(19.9513°S, 43.9599°W)
Time: 13:12:06
(UTC+00:00)

CSL-04 Rocket - Pass Details

Date: 21 January 2021
Orbit: 806 x 860 km, 98.9° (Epoch: 03 March)

Event Time Altitude Azimuth Distance (km) Brightness Sun altitude
Rises 22:59:45 0° 172° (S) 3,340 7.1 -17.6°
Reaches altitude 10° 23:02:06 10° 175° (S) 2,405 6.4 -18.1°
Maximum altitude 23:07:21 65° 256° (WSW) 890 4.0 -19.1°
Drops below altitude 10° 23:12:36 10° 337° (NNW) 2,400 6.0 -20.2°
Sets 23:14:58 0° 340° (NNW) 3,332 6.7 -20.7°
